EW2270 Weather Reports


Display with metric or nautical units.
time (UTC)temp
F
wind
direction
speed
MPH
gust
MPH
rain 1hr
in
rain 24hr
in
rain mn
in
humidity
%
barometer
mb
20260902100104 56 149 5.0 6.0 0.00 0.00 0.00 67 1008.1
20260902094551 57 153 1.0 4.0 0.00 0.00 0.00 66 1007.9
20260902093048 58 127 2.0 6.0 0.00 0.00 0.00 64 1008.0
20260902091550 60 176 0.0 6.0 0.00 0.00 0.00 62 1008.0
20260902090043 61 210 2.0 9.0 0.00 0.00 0.00 61 1008.3
20260902084539 61 236 4.0 8.0 0.00 0.00 0.00 60 1008.4
20260902083038 62 207 3.0 12.0 0.00 0.00 0.00 59 1007.9
20260902081538 62 203 7.0 13.0 0.00 0.00 0.00 59 1008.4
20260902080035 62 199 4.0 12.0 0.00 0.00 0.00 58 1008.3
20260902074538 62 202 6.0 11.0 0.00 0.00 0.00 57 1008.4
20260902073032 62 233 7.0 16.0 0.00 0.00 0.00 57 1008.0
20260902071526 63 203 7.0 16.0 0.00 0.00 0.00 56 1008.1
20260902070023 63 221 8.0 15.0 0.00 0.00 0.00 55 1007.9
20260902064522 63 221 5.0 12.0 0.00 0.00 0.00 55 1007.7
20260902063033 64 195 7.0 15.0 0.00 0.00 0.00 54 1007.4
20260902061523 64 203 5.0 16.0 0.00 0.00 0.00 53 1007.4
20260902060018 63 200 5.0 8.0 0.00 0.00 0.00 53 1007.4
20260902054524 64 207 2.0 10.0 0.00 0.00 0.00 50 1007.4
20260902053016 66 232 9.0 17.0 0.00 0.00 0.00 48 1007.1
20260902051515 66 229 7.0 14.0 0.00 0.00 0.00 48 1007.1
20260902050043 67 210 9.0 17.0 0.00 0.00 0.00 45 1006.9
20260902044513 68 221 6.0 14.0 0.00 0.00 0.00 44 1006.7
20260902043027 68 219 5.0 18.0 0.00 0.00 0.00 43 1006.5
20260902041513 68 200 7.0 11.0 0.00 0.00 0.00 42 1006.2
20260902040012 67 156 3.0 5.0 0.00 0.00 0.00 42 1005.8
20260902034511 68 147 3.0 6.0 0.00 0.00 0.00 42 1005.4
20260902033010 69 142 3.0 7.0 0.00 0.00 0.00 40 1005.2
20260902031509 70 247 3.0 8.0 0.00 0.00 0.00 40 1004.7
20260902030009 71 255 5.0 8.0 0.00 0.00 0.00 38 1004.5
20260902024508 72 243 6.0 9.0 0.00 0.00 0.00 36 1004.2
20260902023008 74 272 6.0 11.0 0.00 0.00 0.00 34 1004.0
20260902021507 75 270 5.0 10.0 0.00 0.00 0.00 35 1003.8
20260902020007 76 280 5.0 8.0 0.00 0.00 0.00 34 1003.8
20260902014506 77 296 2.0 3.0 0.00 0.00 0.00 34 1003.8
20260902013005 78 314 2.0 4.0 0.00 0.00 0.00 34 1003.6
20260902011504 78 320 1.0 5.0 0.00 0.00 0.00 34 1003.6
20260902010006 79 315 2.0 5.0 0.00 0.00 0.00 34 1003.6
20260902004503 79 291 3.0 6.0 0.00 0.00 0.00 33 1003.6
20260902003004 79 326 3.0 8.0 0.00 0.00 0.00 33 1003.4
20260902001501 80 288 4.0 7.0 0.00 0.00 0.00 32 1003.5
20260902000104 80 293 3.0 8.0 0.00 0.00 0.00 32 1003.5
20260901234600 80 299 2.0 7.0 0.00 0.00 0.00 32 1003.5
20260901233059 80 307 1.0 8.0 0.00 0.00 0.00 32 1003.5
20260901231557 80 333 6.0 10.0 0.00 0.00 0.00 33 1003.6
20260901230104 80 345 2.0 10.0 0.00 0.00 0.00 32 1003.8
20260901224554 80 288 4.0 12.0 0.00 0.00 0.00 33 1003.8
20260901223103 79 343 3.0 13.0 0.00 0.00 0.00 33 1004.0
20260901221547 78 255 4.0 9.0 0.00 0.00 0.00 35 1004.2
20260901220105 78 333 4.0 7.0 0.00 0.00 0.00 36 1004.3
20260901214543 77 307 5.0 9.0 0.00 0.00 0.00 37 1004.4
20260901213046 77 39 0.0 5.0 0.00 0.00 0.00 38 1004.6
20260901211539 77 244 0.0 4.0 0.00 0.00 0.00 38 1004.7
20260901210038 76 301 2.0 6.0 0.00 0.00 0.00 39 1004.7
20260901204539 76 250 3.0 6.0 0.00 0.00 0.00 39 1005.2
20260901203037 75 207 5.0 8.0 0.00 0.00 0.00 37 1005.4
20260901201530 74 242 3.0 10.0 0.00 0.00 0.00 38 1005.5
20260901200029 74 292 4.0 7.0 0.00 0.00 0.00 38 1005.6
20260901194525 72 312 0.0 9.0 0.00 0.00 0.00 44 1005.9
20260901193030 71 262 9.0 15.0 0.00 0.00 0.00 45 1006.0
20260901191522 71 294 8.0 10.0 0.00 0.00 0.00 40 1005.7
20260901190019 70 293 5.0 16.0 0.00 0.00 0.00 40 1005.5
20260901184532 70 6 2.0 7.0 0.00 0.00 0.00 41 1006.3
20260901183018 70 319 5.0 8.0 0.00 0.00 0.00 39 1006.1
20260901181521 70 322 3.0 5.0 0.00 0.00 0.00 39 1006.5
20260901180015 69 1 2.0 5.0 0.00 0.00 0.00 38 1006.6
20260901174534 69 46 4.0 8.0 0.00 0.00 0.00 39 1006.0
20260901173008 67 79 3.0 5.0 0.00 0.00 0.00 40 1006.2
20260901171505 67 41 0.0 5.0 0.00 0.00 0.00 42 1006.6
20260901170003 66 46 0.0 2.0 0.00 0.00 0.00 41 1006.9
20260901164503 65 338 1.0 3.0 0.00 0.00 0.00 42 1006.5
20260901163101 65 249 3.0 6.0 0.00 0.00 0.00 45 1006.5
20260901161614 65 7 4.0 6.0 0.00 0.00 0.00 42 1005.8
20260901160115 65 25 1.0 4.0 0.00 0.00 0.00 42 1006.1
20260901154558 64 349 2.0 3.0 0.00 0.00 0.00 44 1006.1
20260901153110 62 118 0.0 4.0 0.00 0.00 0.00 47 1006.3
20260901151558 57 102 2.0 3.0 0.00 0.00 0.00 53 1006.5
20260901150051 56 257 0.0 0.0 0.00 0.00 0.00 55 1006.6
20260901144550 54 257 0.0 3.0 0.00 0.00 0.00 58 1006.3
20260901143102 54 133 0.0 1.0 0.00 0.00 0.00 56 1006.0
20260901141547 54 133 0.0 1.0 0.00 0.00 0.00 57 1005.9
20260901140050 53 133 0.0 1.0 0.00 0.00 0.00 57 1005.8
20260901134545 52 139 0.0 3.0 0.00 0.00 0.00 56 1005.5
20260901133044 52 238 0.0 3.0 0.00 0.00 0.00 56 1005.5
20260901131545 54 141 0.0 2.0 0.00 0.00 0.00 56 1005.5
20260901130041 54 141 0.0 1.0 0.00 0.00 0.00 56 1005.2
20260901124540 53 141 0.0 0.0 0.00 0.00 0.00 56 1005.4
20260901123047 52 141 0.0 0.0 0.00 0.00 0.00 58 1005.2
20260901121543 53 141 0.0 1.0 0.00 0.00 0.00 56 1005.2
20260901120046 53 141 0.0 1.0 0.00 0.00 0.00 56 1005.3
20260901114541 54 141 0.0 1.0 0.00 0.00 0.00 55 1005.2
20260901113036 55 141 0.0 1.0 0.00 0.00 0.00 55 1005.2
20260901111531 55 141 0.0 2.0 0.00 0.00 0.00 55 1005.2
20260901110026 58 141 0.0 2.0 0.00 0.00 0.00 50 1005.2
20260901104525 58 141 0.0 0.0 0.00 0.00 0.00 48 1005.4
20260901103023 58 141 0.0 0.0 0.00 0.00 0.00 49 1005.6
20260901101523 58 141 0.0 1.0 0.00 0.00 0.00 50 1005.7